Weather History for KAIT - January, 2013

Change the Weather History Date:

Wednesday, January 9, 2013

  Actual Average Record
Temperature  
Mean Temperature 28 °F -  
Max Temperature 33 °F 15 °F 48 °F (2012)
Min Temperature 23 °F -6 °F -39 °F (1977)
Degree Days  
Heating Degree Days 37    
Moisture  
Dew Point 17 °F    
Average Humidity 63    
Maximum Humidity 75    
Minimum Humidity 51    
Precipitation  
Precipitation 0.00 in - - ()
Sea Level Pressure  
Sea Level Pressure 30.05 in    
Wind  
Wind Speed 9 mph (SW)    
Max Wind Speed 17 mph    
Max Gust Speed 29 mph    
Visibility 10 miles    
Events      
Averages and records for this station are not official NWS values.
T = Trace of Precipitation, MM = Missing Value Source: NWS Daily Summary

Daily Weather History Graph

Daily Weather History Graph

Search for Another Location

Airport or City:

Trip Planner

Search our weather history database for the weather conditions in past years. The results will help you decide how hot, cold, wet, or windy it might be!

Date:

Astronomy

Jan. 09, 2013 Rise Set
Actual Time 7:57 AM CST 4:47 PM CST
Civil Twilight 7:22 AM CST 5:21 PM CST
Nautical Twilight 6:45 AM CST 5:59 PM CST
Astronomical Twilight 6:08 AM CST 6:35 PM CST
Moon 5:37 AM CST (1/9) 2:49 PM CST (1/9)
Length of Visible Light 9h 58m
Length of Day
8h 49m
Waning Crescent, 6% of the Moon is Illuminated
Jan 9
Waning Crescent
Jan 11
New
Jan 18
First Quarter
Jan 26
Full
Feb 3
Last Quarter

Hourly Weather History & Observations

Time (CST) Temp. Windchill Dew Point Humidity Pressure Visibility Wind Dir Wind Speed Gust Speed Precip Events Conditions
12:12 AM 30.2 °F 22.6 °F 21.2 °F 69% 29.75 in 10.0 mi SW 8.1 mph - N/A   Clear
12:33 AM 30.2 °F 21.3 °F 23.0 °F 75% 29.74 in 10.0 mi SW 10.4 mph - N/A   Scattered Clouds
12:53 AM 30.2 °F 21.3 °F 21.2 °F 69% 29.74 in 10.0 mi SW 10.4 mph - N/A   Scattered Clouds
1:12 AM 30.2 °F 24.3 °F 21.2 °F 69% 29.75 in 10.0 mi SW 5.8 mph - N/A   Scattered Clouds
1:33 AM 28.4 °F 20.4 °F 21.2 °F 74% 29.74 in 10.0 mi SW 8.1 mph - N/A   Clear
1:53 AM 30.2 °F 22.6 °F 21.2 °F 69% 29.75 in 10.0 mi SW 8.1 mph - N/A   Scattered Clouds
2:12 AM 30.2 °F 20.8 °F 23.0 °F 75% 29.75 in 10.0 mi SW 11.5 mph 16.1 mph N/A   Scattered Clouds
2:33 AM 32.0 °F 23.0 °F 23.0 °F 69% 29.75 in 10.0 mi WSW 11.5 mph 21.9 mph N/A   Scattered Clouds
2:53 AM 32.0 °F 24.2 °F 21.2 °F 64% 29.75 in 10.0 mi WSW 9.2 mph 19.6 mph N/A   Clear
3:12 AM 32.0 °F 23.6 °F 21.2 °F 64% 29.75 in 10.0 mi WSW 10.4 mph 17.3 mph N/A   Scattered Clouds
3:33 AM 33.8 °F 24.8 °F 21.2 °F 60% 29.76 in 10.0 mi WSW 12.7 mph 24.2 mph N/A   Mostly Cloudy
3:53 AM 33.8 °F 24.8 °F 21.2 °F 60% 29.77 in 10.0 mi WSW 12.7 mph 25.3 mph N/A   Overcast
4:12 AM 33.8 °F 24.3 °F 21.2 °F 60% 29.77 in 10.0 mi WSW 13.8 mph 25.3 mph N/A   Mostly Cloudy
4:33 AM 32.0 °F 22.1 °F 19.4 °F 60% 29.79 in 10.0 mi West 13.8 mph 27.6 mph N/A   Scattered Clouds
4:53 AM 32.0 °F 22.5 °F 21.2 °F 64% 29.81 in 10.0 mi West 12.7 mph 23.0 mph N/A   Mostly Cloudy
5:12 AM 30.2 °F 20.2 °F 19.4 °F 64% 29.82 in 10.0 mi West 12.7 mph 20.7 mph N/A   Mostly Cloudy
5:33 AM 30.2 °F 18.9 °F 19.4 °F 64% 29.84 in 10.0 mi West 16.1 mph 28.8 mph N/A   Overcast
5:53 AM 30.2 °F 20.8 °F 19.4 °F 64% 29.86 in 10.0 mi West 11.5 mph 27.6 mph N/A   Overcast
6:12 AM 30.2 °F 21.9 °F 19.4 °F 64% 29.87 in 10.0 mi West 9.2 mph 27.6 mph N/A   Overcast
6:33 AM 28.4 °F 17.5 °F 19.4 °F 69% 29.89 in 10.0 mi West 13.8 mph 23.0 mph N/A   Overcast
6:53 AM 28.4 °F 18.5 °F 19.4 °F 69% 29.91 in 10.0 mi West 11.5 mph 23.0 mph N/A   Overcast
7:12 AM 28.4 °F 18.0 °F 19.4 °F 69% 29.94 in 10.0 mi West 12.7 mph 21.9 mph N/A   Overcast
7:33 AM 28.4 °F 19.1 °F 19.4 °F 69% 29.95 in 10.0 mi West 10.4 mph 17.3 mph N/A   Overcast
7:53 AM 28.4 °F 19.7 °F 19.4 °F 69% 29.97 in 10.0 mi West 9.2 mph 21.9 mph N/A   Overcast
8:12 AM 28.4 °F 16.2 °F 17.6 °F 64% 29.99 in 10.0 mi West 17.3 mph 26.5 mph N/A   Overcast
8:33 AM 28.4 °F 19.7 °F 17.6 °F 64% 30.01 in 10.0 mi West 9.2 mph 20.7 mph N/A   Overcast
8:52 AM 26.6 °F 16.8 °F 17.6 °F 69% 30.02 in 10.0 mi West 10.4 mph 25.3 mph N/A   Overcast
9:12 AM 26.6 °F 16.8 °F 17.6 °F 69% 30.03 in 10.0 mi West 10.4 mph 19.6 mph N/A   Overcast
9:32 AM 26.6 °F 18.2 °F 17.6 °F 69% 30.05 in 10.0 mi West 8.1 mph 20.7 mph N/A   Overcast
9:52 AM 26.6 °F 18.2 °F 17.6 °F 69% 30.07 in 10.0 mi West 8.1 mph 19.6 mph N/A   Overcast
10:13 AM 26.6 °F 18.2 °F 15.8 °F 64% 30.08 in 10.0 mi West 8.1 mph 17.3 mph N/A   Overcast
10:32 AM 26.6 °F 19.1 °F 15.8 °F 64% 30.07 in 10.0 mi West 6.9 mph 16.1 mph N/A   Mostly Cloudy
11:13 AM 28.4 °F 21.2 °F 15.8 °F 59% 30.08 in 10.0 mi West 6.9 mph - N/A   Clear
11:32 AM 28.4 °F 21.2 °F 15.8 °F 59% 30.09 in 10.0 mi WNW 6.9 mph - N/A   Clear
11:52 AM 28.4 °F 19.7 °F 15.8 °F 59% 30.09 in 10.0 mi West 9.2 mph - N/A   Clear
12:13 PM 30.2 °F 21.3 °F 15.8 °F 55% 30.09 in 10.0 mi West 10.4 mph 16.1 mph N/A   Clear
12:33 PM 30.2 °F 21.9 °F 15.8 °F 55% 30.10 in 10.0 mi West 9.2 mph - N/A   Clear
12:52 PM 30.2 °F 23.4 °F 15.8 °F 55% 30.12 in 10.0 mi West 6.9 mph 16.1 mph N/A   Clear
1:13 PM 30.2 °F 21.9 °F 15.8 °F 55% 30.13 in 10.0 mi WSW 9.2 mph - N/A   Clear
1:33 PM 30.2 °F 22.6 °F 15.8 °F 55% 30.15 in 10.0 mi WSW 8.1 mph 16.1 mph N/A   Clear
1:52 PM 30.2 °F 21.9 °F 15.8 °F 55% 30.17 in 10.0 mi WSW 9.2 mph - N/A   Clear
2:13 PM 30.2 °F 21.9 °F 15.8 °F 55% 30.18 in 10.0 mi WSW 9.2 mph - N/A   Clear
2:33 PM 30.2 °F 23.4 °F 14.0 °F 51% 30.20 in 10.0 mi WSW 6.9 mph - N/A   Clear
2:52 PM 32.0 °F 25.6 °F 15.8 °F 51% 30.21 in 10.0 mi WSW 6.9 mph - N/A   Clear
3:13 PM 30.2 °F 21.9 °F 15.8 °F 55% 30.22 in 10.0 mi SW 9.2 mph - N/A   Clear
3:33 PM 30.2 °F 23.4 °F 14.0 °F 51% 30.23 in 10.0 mi WSW 6.9 mph - N/A   Clear
3:52 PM 30.2 °F 23.4 °F 14.0 °F 51% 30.24 in 10.0 mi SW 6.9 mph - N/A   Clear
4:13 PM 30.2 °F 22.6 °F 15.8 °F 55% 30.24 in 10.0 mi SW 8.1 mph - N/A   Clear
4:33 PM 30.2 °F 24.3 °F 14.0 °F 51% 30.26 in 10.0 mi SW 5.8 mph - N/A   Clear
4:52 PM 28.4 °F 23.3 °F 15.8 °F 59% 30.26 in 10.0 mi SW 4.6 mph - N/A   Clear
5:13 PM 28.4 °F 23.3 °F 15.8 °F 59% 30.26 in 10.0 mi SW 4.6 mph - N/A   Mostly Cloudy
5:33 PM 28.4 °F 22.2 °F 15.8 °F 59% 30.25 in 10.0 mi SW 5.8 mph - N/A   Overcast
5:52 PM 28.4 °F - 15.8 °F 59% 30.24 in 10.0 mi Calm Calm - N/A   Overcast
6:13 PM 28.4 °F - 15.8 °F 59% 30.23 in 10.0 mi Calm Calm - N/A   Overcast
6:33 PM 28.4 °F 23.3 °F 17.6 °F 64% 30.23 in 10.0 mi South 4.6 mph - N/A   Overcast
6:52 PM 28.4 °F 23.3 °F 15.8 °F 59% 30.23 in 10.0 mi South 4.6 mph - N/A   Overcast
7:13 PM 28.4 °F 24.6 °F 15.8 °F 59% 30.23 in 10.0 mi SSE 3.5 mph - N/A   Overcast
7:33 PM 26.6 °F 20.0 °F 15.8 °F 64% 30.24 in 10.0 mi South 5.8 mph - N/A   Scattered Clouds
7:52 PM 26.6 °F 19.1 °F 15.8 °F 64% 30.24 in 10.0 mi South 6.9 mph - N/A   Scattered Clouds
8:13 PM 26.6 °F 20.0 °F 15.8 °F 64% 30.23 in 10.0 mi South 5.8 mph - N/A   Clear
8:33 PM 24.8 °F - 15.8 °F 69% 30.22 in 10.0 mi Calm Calm - N/A   Clear
8:52 PM 23.0 °F 15.8 °F 14.0 °F 68% 30.21 in 10.0 mi SSE 5.8 mph - N/A   Clear
9:13 PM 24.8 °F 17.9 °F 15.8 °F 69% 30.20 in 10.0 mi SSE 5.8 mph - N/A   Clear
9:32 PM 24.8 °F 16.9 °F 15.8 °F 69% 30.21 in 10.0 mi SSE 6.9 mph - N/A   Clear
9:53 PM 24.8 °F 17.9 °F 15.8 °F 69% 30.20 in 10.0 mi SSE 5.8 mph - N/A   Clear
10:13 PM 24.8 °F 16.1 °F 15.8 °F 69% 30.21 in 10.0 mi South 8.1 mph - N/A   Clear
10:32 PM 24.8 °F 17.9 °F 15.8 °F 69% 30.20 in 10.0 mi SSE 5.8 mph - N/A   Clear
10:53 PM 24.8 °F 19.1 °F 15.8 °F 69% 30.20 in 10.0 mi SSE 4.6 mph - N/A   Clear
11:13 PM 24.8 °F 17.9 °F 15.8 °F 69% 30.20 in 10.0 mi SSE 5.8 mph - N/A   Clear
11:32 PM 23.0 °F 15.8 °F 15.8 °F 74% 30.19 in 10.0 mi SE 5.8 mph - N/A   Clear
11:53 PM 23.0 °F 15.8 °F 15.8 °F 74% 30.19 in 10.0 mi SE 5.8 mph - N/A   Clear